Portada
METAR-TAF:

METAR-TAF

Aeroports :

Ashland, Wisconsin, Estats Units d'Amèrica

latitud: 46-32-59N, longitud: 090-55-06W, altitud: 251 m

Observació

L'informe es va fer fa 54 minuts, a les 16:53 UTC
Vent 14 kt del Sud/Sud-Oest
Temperatura 16°C
Humitat 51%
Pressió 1023 hPa
Visibilitat: 16.1 km
Escasses núvols a una alçada de 11000 ft

METAR: KASX 221653Z AUTO 21014KT 10SM FEW110 16/06 A3022 RMK AO2 SLP237 T01560061

Hora: 12:47 (17:47 UTC)


TAF: manca

Observacions i pronòstics meteorològics de més de 4000 aeroports (METAR i TAF).

Les estacions disponibles són els punts grocs i vermells al mapa.

Posi el ratolí al punt desitjat per veure el nom de l'estació.

Feu clic per veure les observacions i els pronòstics meteorològics.

Per canviar el mapa: feu clic els botons verds amb una creu de color negre per apropar; al botó verd amb un guió per allunyar la imatge; o en les fletxes verdes per a mapes adjacents.


METAR-TAF: